Location: Gniazdowice
(50.2124°N, 20.2673°E)
Time: 00:22:25
(UTC+00:00)

Cosmos 1953 - Pass Details

Date: 23 May 2024
Orbit: 510 x 531 km, 82.5° (Epoch: 18 June)

Event Time Altitude Azimuth Distance (km) Brightness Sun altitude
Rises 00:58:58 0° 337° (NNW) 2,686 6.3 -12.4°
Reaches altitude 10° 01:01:31 10° 321° (NW) 1,787 5.1 -12.2°
Maximum altitude 01:04:26 20° 273° (W) 1,252 3.8 -11.9°
Enters shadow 01:06:07 16° 240° (WSW) 1,444 3.9 -11.7°
